User: anonymous   Login
Location: Unspecified
(0.0000°N, 0.0000°E)
Time: 04:50:49
(UTC+02:00)
Language:

Cosmos 1300 - Orbit

View from above orbital plane
View from above orbital plane
View from above satellite
View from above satellite

Ground track
Ground track

The orbit data is extracted from the following two-line orbital elements,

1 12785U 81082A   15213.88351674  .00001916  00000-0  10179-3 0  9994
2 12785 082.5035 029.9158 0002921 094.8661 022.6859 15.14742364848021
Epoch (UTC): 01 August 2015 21:12:15
Eccentricity: 0.0002921
inclination: 82.5035°
perigee height: 520 km
apogee height: 524 km
right ascension of ascending node: 29.9158°
argument of perigee: 94.8661°
revolutions per day: 15.14742364
mean anomaly at epoch: 22.6859°
orbit number at epoch: 84802

The dashed part of the orbit path shows where the satellite is in the earth's shadow,  

DLR